STARLINK-32013 (60103 NORAD) Tracking and Keplerian Element Data

This shows tracking and keplerian element data for the satellite.

Feedback or suggestion? Click here.




ElementValue
Catalog60103
NameSTARLINK-32013
Epoch Orbit1833
Epoch Day286.63835079
Epoch Year2024
RAAN260.3634
Inclination53.1591
Eccentricity9.18E-05
Argument of Perigee79.1877
Mean Anonmoly280.9227
Mean Motion15.30184027
Decay Rate2.294E-05
L11 60103U 24117N 24286.63835079 .00002294 00000+0 89597-4 0 9996
L22 60103 53.1591 260.3634 0000918 79.1877 280.9227 15.30184027 18333



Live tracking and technical data element details for STARLINK-32013 (NORAD 60103). STARLINK-32013 can be tracked NOW for your location showing map with azimuth and elevation plus other details from your city location.







IsCatalogInMostPopularTable: catalog: 60103, numindb: 7
Update: records affected: 1



GetName: 60103 STARLINK-32013

Hit Count: updated at: Thu, 23 Jan 2025 14:07:10 GMT